Powrót do katalogu

STARLINK-37337

AktywnyŁącznośćVLEO
NORAD 68953·PAYLOAD·🇺🇸 United States

Wystrzelony May 1, 2026 z Cape Canaveral Space Force Station

Loading…

Następne Przeloty (najbliższe 24 godziny)

TLE

ŚwieżeSource: CelesTrak SupGP

Epoka: Sep 14, 2026, 21:15 UTC

1 68953C 26099C   26257.88590278 -.00028113  00000+0 -83076-3 0  2576
2 68953  53.1572 102.2751 0001218  82.6832 125.1389 15.34398398    18

Śledź STARLINK-37337 w czasie rzeczywistym z AllMySat

Download on the App Store